#timestamp,LO_Frequency,Hit,StdDev 
1604430015.2,286047008.9,P
1604430035.0,286047007.3,N
1604430036.0,286047007.3,N
1604430055.8,286047007.1,Y
1604430075.6,286046998.1,P
1604430095.5,286047001.1,N
1604430115.3,286047001.9,N
1604430135.1,286047000.3,N
1604430155.9,286047002.2,N
1604430175.7,286047000.6,N
1604430195.6,286046999.5,N
1604430215.4,286047002.1,N
1604430235.2,286047003.2,N
1604430255.1,286047003.1,N
1604430256.0,286047003.1,N
1604430275.8,286047003.1,N
1604430295.6,286046998.4,N
1604430315.5,286047001.5,N
1604430335.3,286047000.3,N
1604430355.2,286046997.0,N
1604430375.0,286047000.8,N
1604430375.9,286047000.8,N
1604430395.7,286046998.4,N
1604430415.6,286047000.1,N
1604430435.4,286046995.1,N
1604430455.3,286046997.6,N
1604430475.1,286046996.6,N
1604430476.0,286046996.6,N
1604430495.8,286046999.5,N
1604430515.7,286047001.7,N
1604430535.5,286047001.8,N
1604430555.4,286047000.9,N
1604430575.2,286046997.3,N
1604430595.0,286046995.4,N
1604430595.9,286046995.4,N
1604430615.8,286046997.9,N
1604430635.6,286046996.1,N
1604430655.4,286046996.2,N
1604430675.3,286046995.4,N
1604430695.1,286047011.9,Y
1604430715.9,286046998.7,P
1604430735.7,286046998.1,P
1604430755.5,286046998.3,P
1604430775.4,286046999.0,N
1604430795.2,286047000.1,N
1604430815.1,286047005.8,Y
1604430816.0,286047005.8,P
1604430835.8,286047002.0,N
1604430855.6,286047002.8,N
1604430875.5,286047006.3,N
1604430895.3,286047012.4,Y
1604430915.1,286047005.3,P
1604430935.9,286047003.0,N
1604430955.7,286047007.2,P
1604430975.6,286047008.5,Y
1604430995.4,286047001.7,P
1604431015.2,286047000.0,N
1604431035.1,286046998.1,N
1604431036.0,286046998.1,N
1604431055.8,286046999.1,N
1604431075.7,286046998.5,N
1604431095.5,286047000.6,N
1604431115.3,286046996.6,N
1604431135.2,286046994.9,N
1604431155.0,286047002.7,N
1604431155.9,286047002.7,N
1604431175.7,286047001.4,N
1604431195.6,286047001.5,N
1604431215.4,286047005.0,N
1604431235.3,286047006.5,N
1604431255.1,286047008.8,N
1604431256.0,286047008.8,N
1604431275.8,286047010.2,N
1604431295.7,286047003.2,N
1604431315.5,286047001.4,N
1604431335.3,286047002.4,N
1604431355.2,286046996.5,N
1604431375.0,286046997.4,N
1604431375.9,286046997.4,N
1604431395.8,286046998.5,N
1604431415.6,286047002.8,N
1604431435.4,286047004.6,N
1604431455.3,286047006.0,N
1604431475.1,286047001.9,N
1604431495.9,286047003.7,N
1604431515.7,286047007.4,N
1604431535.5,286047007.7,N
1604431555.4,286047007.5,N
1604431575.2,286047001.5,N
1604431595.1,286047003.0,N
1604431596.0,286047003.0,N
1604431615.8,286047007.2,N
1604431635.6,286047007.8,N
1604431655.5,286047005.5,N
1604431675.3,286047003.9,N
1604431695.1,286047001.0,N
1604431715.9,286047002.5,N
1604431735.7,286047003.0,N
1604431755.6,286047004.6,N
1604431775.4,286047005.4,N
1604431795.2,286047012.4,Y
1604431815.1,286047006.1,P
1604431816.0,286047006.1,P
1604431835.8,286047002.0,N
1604431855.7,286047002.6,N
1604431875.5,286047005.4,Y
1604431895.3,286047000.0,P
1604431915.2,286047000.5,N
1604431935.0,286046997.0,N
1604431935.9,286046997.0,N
1604431955.8,286047000.7,N
1604431975.6,286046999.3,N
1604431995.4,286047000.6,N
1604432015.3,286046999.7,N
1604432035.1,286047001.2,N
1604432055.8,286047001.0,N
1604432075.7,286046999.1,N
1604432095.5,286046997.0,N
1604432115.3,286046995.4,N
1604432135.2,286046993.7,N
1604432155.0,286046999.5,N
1604432155.9,286046999.5,N
1604432175.8,286046995.6,N
1604432195.6,286046994.4,N
1604432215.4,286046996.0,N
1604432235.3,286046996.0,N
1604432255.1,286046998.1,N
1604432275.9,286047002.6,N
1604432295.7,286046998.8,N
1604432315.5,286046995.3,N
1604432335.4,286046994.8,N
1604432355.2,286046992.4,N
1604432375.0,286046989.6,Y
1604432375.9,286046989.6,P
1604432395.8,286046992.1,N
1604432415.6,286046995.5,N
1604432435.5,286046997.2,N
1604432455.3,286046995.2,N
1604432475.1,286046997.8,N
1604432495.9,286046999.1,N
1604432515.7,286046997.0,N
1604432535.6,286046996.6,N
1604432555.4,286046999.0,N
1604432575.2,286047000.8,N
1604432595.1,286047002.7,N
1604432596.0,286047002.7,N
1604432615.8,286046998.2,N
1604432635.6,286046998.2,N
1604432655.5,286046998.2,N
1604432675.3,286046999.8,N
1604432695.2,286047004.1,N
1604432715.9,286047001.3,N
1604432735.7,286047008.3,N
1604432755.6,286047013.3,Y
1604432775.4,286047018.5,P
1604432795.3,286047017.5,N
1604432815.1,286047019.8,N
1604432816.0,286047019.8,N
1604432835.8,286047019.2,N
1604432855.7,286047020.4,N
1604432875.5,286047014.6,N
1604432895.3,286047014.5,N
1604432915.2,286047014.9,N
1604432935.0,286047013.0,N
1604432935.9,286047013.0,N
1604432955.8,286047015.6,N
1604432975.6,286047015.1,N
1604432995.4,286047020.6,Y
1604433015.3,286047011.5,P
1604433035.1,286047007.1,P
1604433055.8,286047004.3,N
1604433075.7,286047005.1,N
1604433095.5,286047008.7,N
1604433115.4,286047005.0,N
1604433135.2,286047005.3,N
1604433155.0,286047007.2,N
1604433155.9,286047007.2,N
1604433175.8,286047005.4,N
1604433195.6,286047001.5,N
1604433215.4,286047004.1,N
1604433235.3,286047001.6,N
1604433255.1,286047002.0,N
1604433275.9,286047003.5,N
1604433295.7,286047003.5,N
1604433315.5,286047005.2,N
1604433335.4,286047006.0,N
1604433355.2,286047004.0,N
1604433375.0,286047004.4,N
1604433375.9,286047004.4,N
1604433395.8,286047004.5,N
1604433415.6,286047007.4,N
1604433435.5,286047006.0,N
1604433455.3,286047007.2,N
1604433475.1,286047004.3,N
1604433495.9,286047000.0,N
1604433515.7,286046998.6,N
1604433535.6,286047004.4,N
1604433555.4,286047009.2,N
1604433575.2,286047010.8,Y
1604433595.1,286047000.5,P
1604433596.0,286047000.5,N
